McAllen, TX

10:12 AM CDT on September 23, 2017 (GMT -0500)
McAllen Miller International

Weather History for KMFE - July, 2013

Change the Weather History Date:

Tuesday, July 9, 2013

  Actual Average Record
Temperature  
Mean Temperature 87 °F 86 °F  
Max Temperature 95 °F 97 °F 104 °F (2009)
Min Temperature 78 °F 76 °F 71 °F (1986)
Degree Days  
Heating Degree Days 0 0  
Month to date heating degree days 0 0  
Since 1 June heating degree days 0 0  
Since 1 July heating degree days 0 0  
Cooling Degree Days 22 21  
Month to date cooling degree days 187 189  
Year to date cooling degree days 2160 2072  
Since 1 June cooling degree days 864 817  
Growing Degree Days 36 (Base 50)    
Moisture  
Dew Point 76 °F    
Average Humidity 73    
Maximum Humidity 97    
Minimum Humidity 49    
Precipitation  
Precipitation 0.18 in 0.08 in 2.18 in (1976)
Month to date precipitation 0.80 0.68  
Year to date precipitation 5.10 10.04  
Sea Level Pressure  
Sea Level Pressure 30.06 in    
Wind  
Wind Speed 9 mph (SE)    
Max Wind Speed 23 mph    
Max Gust Speed 28 mph    
Visibility 10 miles    
Events Rain    
T = Trace of Precipitation, MM = Missing Value Source: NWS Daily Summary

Daily Weather History Graph

Daily Weather History Graph

Search for Another Location

Airport or City:

Trip Planner

Search our weather history database for the weather conditions in past years. The results will help you decide how hot, cold, wet, or windy it might be!

Date:

Astronomy

Jul. 09, 2013 Rise Set
Actual Time 6:47 AM CDT 8:28 PM CDT
Civil Twilight 6:21 AM CDT 8:54 PM CDT
Nautical Twilight 5:50 AM CDT 9:25 PM CDT
Astronomical Twilight 5:18 AM CDT 9:58 PM CDT
Moon 8:00 AM CDT (7/9) 9:22 PM CDT (7/9)
Length of Visible Light 14h 32m
Length of Day
13h 41m
New Moon, 2% of the Moon is Illuminated
Jul 9
New Moon
Jul 15
First Quarter
Jul 22
Full
Jul 29
Last Quarter
Aug 6
New

Hourly Weather History & Observations

Time (CDT) Temp. Heat Index Dew Point Humidity Pressure Visibility Wind Dir Wind Speed Gust Speed Precip Events Conditions
12:11 AM 80.6 °F 88.1 °F 78.8 °F 94% 30.08 in 10.0 mi ESE 6.9 mph - N/A   Mostly Cloudy
12:53 AM 80.1 °F 86.4 °F 78.1 °F 94% 30.07 in 10.0 mi ESE 6.9 mph - N/A   Scattered Clouds
1:53 AM 80.1 °F 85.8 °F 77.0 °F 90% 30.06 in 10.0 mi ESE 6.9 mph - N/A   Clear
2:53 AM 79.0 °F - 77.0 °F 94% 30.06 in 10.0 mi East 8.1 mph - N/A   Clear
3:28 AM 80.6 °F 87.1 °F 77.0 °F 89% 30.06 in 10.0 mi ESE 8.1 mph - N/A   Mostly Cloudy
3:53 AM 79.0 °F - 77.0 °F 94% 30.05 in 10.0 mi ESE 8.1 mph - N/A   Scattered Clouds
4:53 AM 78.1 °F - 77.0 °F 96% 30.05 in 10.0 mi SE 4.6 mph - N/A   Scattered Clouds
5:10 AM 78.8 °F - 77.0 °F 94% 30.05 in 10.0 mi ESE 5.8 mph - N/A   Mostly Cloudy
5:27 AM 78.8 °F - 77.0 °F 94% 30.05 in 10.0 mi ESE 5.8 mph - N/A   Scattered Clouds
5:53 AM 78.1 °F - 77.0 °F 96% 30.05 in 10.0 mi ESE 5.8 mph - N/A   Partly Cloudy
6:53 AM 78.1 °F - 77.0 °F 96% 30.05 in 10.0 mi ESE 5.8 mph - N/A   Mostly Cloudy
7:45 AM 78.8 °F - 77.0 °F 94% 30.07 in 10.0 mi ESE 8.1 mph - N/A   Scattered Clouds
7:53 AM 79.0 °F - 77.0 °F 94% 30.06 in 10.0 mi ESE 8.1 mph - N/A   Partly Cloudy
8:53 AM 82.0 °F 91.0 °F 78.1 °F 88% 30.09 in 10.0 mi SE 9.2 mph - N/A   Scattered Clouds
9:04 AM 82.4 °F 92.4 °F 78.8 °F 89% 30.09 in 10.0 mi ESE 10.4 mph - N/A   Mostly Cloudy
9:26 AM 82.4 °F 90.9 °F 77.0 °F 84% 30.09 in 10.0 mi SE 10.4 mph - N/A   Mostly Cloudy
9:53 AM 84.9 °F 94.1 °F 75.9 °F 74% 30.09 in 10.0 mi SE 12.7 mph - N/A   Scattered Clouds
10:53 AM 88.0 °F 97.5 °F 75.0 °F 65% 30.10 in 10.0 mi SE 11.5 mph - N/A   Mostly Cloudy
11:53 AM 90.0 °F 99.0 °F 73.9 °F 59% 30.09 in 10.0 mi SE 12.7 mph - N/A   Scattered Clouds
12:53 PM 91.0 °F 99.3 °F 73.0 °F 55% 30.08 in 10.0 mi ESE 11.5 mph - N/A   Scattered Clouds
1:53 PM 93.9 °F 102.1 °F 72.0 °F 49% 30.06 in 10.0 mi SE 11.5 mph 17.3 mph N/A   Clear
2:53 PM 93.0 °F 100.7 °F 72.0 °F 50% 30.05 in 10.0 mi SE 10.4 mph 26.5 mph N/A   Partly Cloudy
3:53 PM 88.0 °F 95.6 °F 73.0 °F 61% 30.04 in 10.0 mi ENE 9.2 mph 17.3 mph 0.00 in Rain Light Rain
4:53 PM 80.1 °F 85.1 °F 75.0 °F 85% 30.02 in 7.0 mi SSW 4.6 mph - 0.18 in Rain Light Rain
5:53 PM 88.0 °F 97.5 °F 75.0 °F 65% 30.00 in 10.0 mi SE 15.0 mph 18.4 mph 0.00 in   Partly Cloudy
6:53 PM 88.0 °F 96.5 °F 73.9 °F 63% 30.00 in 10.0 mi SSE 13.8 mph - N/A   Clear
7:53 PM 86.0 °F 93.8 °F 73.9 °F 67% 30.00 in 10.0 mi SE 11.5 mph - N/A   Clear
8:53 PM 84.0 °F 91.2 °F 73.9 °F 72% 30.02 in 10.0 mi SE 9.2 mph - N/A   Clear
9:53 PM 82.0 °F 87.9 °F 73.9 °F 76% 30.04 in 10.0 mi SE 8.1 mph - N/A   Clear
10:53 PM 79.0 °F - 75.0 °F 88% 30.05 in 10.0 mi SE 5.8 mph - N/A   Clear
11:53 PM 79.0 °F - 75.0 °F 88% 30.05 in 10.0 mi ESE 9.2 mph - N/A   Clear